TimeCST,TemperatureF,Dew PointF,Humidity,Sea Level PressureIn,VisibilityMPH,Wind Direction,Wind SpeedMPH,Gust SpeedMPH,PrecipitationIn,Events,Conditions,WindDirDegrees,DateUTC
12:53 AM,23.0,19.0,85,30.34,10.0,Calm,Calm,-,N/A,,Clear,0,2012-11-28 06:53:00
1:53 AM,24.1,19.9,84,30.35,10.0,WSW,3.5,-,N/A,,Clear,250,2012-11-28 07:53:00
2:53 AM,21.0,18.0,88,30.35,10.0,Calm,Calm,-,N/A,,Clear,0,2012-11-28 08:53:00
3:53 AM,17.1,14.0,88,30.36,10.0,Calm,Calm,-,N/A,,Clear,0,2012-11-28 09:53:00
4:53 AM,17.1,14.0,88,30.36,10.0,NNW,3.5,-,N/A,,Clear,330,2012-11-28 10:53:00
5:53 AM,17.6,14.0,86,30.29,10.0,Calm,Calm,-,N/A,,Clear,0,2012-11-28 11:53:00
6:53 AM,18.0,15.1,88,30.38,10.0,Calm,Calm,-,N/A,,Clear,0,2012-11-28 12:53:00
7:53 AM,16.0,12.9,88,30.40,10.0,Calm,Calm,-,N/A,,Clear,0,2012-11-28 13:53:00
8:53 AM,21.9,19.9,92,30.39,10.0,Calm,Calm,-,N/A,,Clear,0,2012-11-28 14:53:00
9:53 AM,32.0,26.1,79,30.38,10.0,SSE,4.6,-,N/A,,Clear,160,2012-11-28 15:53:00
10:53 AM,36.0,26.1,67,30.36,10.0,SSE,9.2,-,N/A,,Clear,160,2012-11-28 16:53:00
11:53 AM,43.0,27.0,53,30.32,10.0,SSE,10.4,16.1,N/A,,Clear,160,2012-11-28 17:53:00
12:53 PM,46.9,28.0,48,30.27,10.0,South,8.1,-,N/A,,Clear,170,2012-11-28 18:53:00
1:53 PM,48.9,28.0,44,30.22,10.0,South,6.9,-,N/A,,Clear,190,2012-11-28 19:53:00
2:53 PM,50.0,27.0,41,30.19,9.0,South,9.2,-,N/A,,Clear,190,2012-11-28 20:53:00
3:53 PM,48.9,26.1,41,30.17,10.0,South,6.9,-,N/A,,Clear,190,2012-11-28 21:53:00
4:53 PM,46.0,26.1,46,30.16,10.0,South,8.1,-,N/A,,Clear,190,2012-11-28 22:53:00
5:53 PM,43.0,27.0,53,30.16,10.0,South,8.1,-,N/A,,Clear,190,2012-11-28 23:53:00
6:53 PM,41.0,27.0,57,30.14,10.0,South,6.9,-,N/A,,Clear,180,2012-11-29 00:53:00
7:53 PM,37.9,26.1,62,30.15,10.0,South,5.8,-,N/A,,Clear,180,2012-11-29 01:53:00
8:53 PM,39.9,28.0,63,30.13,10.0,South,6.9,-,N/A,,Clear,190,2012-11-29 02:53:00
9:53 PM,42.1,28.9,60,30.11,10.0,South,6.9,-,N/A,,Clear,190,2012-11-29 03:53:00
10:53 PM,37.9,28.0,68,30.09,10.0,South,6.9,-,N/A,,Clear,190,2012-11-29 04:53:00
11:53 PM,36.0,28.0,73,30.07,10.0,SSW,8.1,-,N/A,,Clear,200,2012-11-29 05:53:00